Home   Weather   Košice   Past weeks

Flag for Slovakia Past Weather in Košice, Slovakia — Yesterday and Last 2 Weeks

Now
63 °F

Clear.


Feels Like: 63 °F
Forecast: 58 / 72 °F
Wind: 9 mph from Northeast

Location: Kosice - Barca

Current Time: May 22, 2017 at 11:31:46 pm

Latest Report: May 22, 2017 at 10:30 pm


Visibility: 10 mi

Pressure: 30.04 "Hg

Humidity: 64%

Dew Point: 50 °F

Location of KošiceLocation

Past Weather in Košice — Graph

°F

Košice Temperature Yesterday

Maximum temperature yesterday: 73 °F (at 3:30 pm)
Minimum temperature yesterday: 59 °F (at 3:30 am)
Average temperature yesterday: 66 °F

High & Low Weather Summary for the Past Weeks

 TemperatureHumidityPressure
High81 °F (May 20, 3:00 pm)100% (May 12, 11:30 pm)30.33 "Hg (May 12, 11:30 pm)
Low30 °F (May 10, 4:00 am)31% (May 15, 2:30 pm)29.68 "Hg (May 8, 1:30 am)
Average59 °F65%29.99 "Hg
* Reported May 7 10:00 pm — May 22 10:00 pm, Košice. Weather by CustomWeather, © 2017

Note: Actual official high and low records may vary slightly from our data, if they occured in-between our weather recording intervals... More about our weather records

Advertising

Košice Weather History for the Previous 24 Hours

Scroll right to see more
 ConditionsComfort  
Time TempWeatherWind HumidityBarometerVisibility
10:00 pm
Mon, May 22
61 °FClear.10 mph68%30.04 "Hg10 mi
9:30 pm63 °FClear.10 mph64%30.04 "Hg10 mi
9:00 pm63 °FClear.10 mph64%30.04 "Hg10 mi
8:30 pm66 °FClear.9 mph56%30.04 "Hg10 mi
8:00 pm66 °FSunny.9 mph56%30.01 "Hg10 mi
7:30 pm68 °FSunny.12 mph53%30.01 "Hg10 mi
7:00 pm68 °FSunny.8 mph49%30.01 "Hg10 mi
6:30 pm70 °FSunny.12 mph50%30.01 "Hg10 mi
6:00 pm70 °FSunny.13 mph50%30.01 "Hg10 mi
5:30 pm70 °FSunny.14 mph50%30.01 "Hg10 mi
5:00 pm72 °FPassing clouds.15 mph47%30.04 "HgN/A
4:30 pm73 °FPassing clouds.14 mph47%30.04 "HgN/A
4:00 pm72 °FPassing clouds.12 mph50%30.04 "HgN/A
3:30 pm72 °FPassing clouds.12 mph53%30.04 "HgN/A
3:00 pm72 °FPassing clouds.13 mph53%30.04 "HgN/A
2:30 pm72 °FPassing clouds.16 mph50%30.04 "HgN/A
2:00 pm70 °FScattered clouds.16 mph57%30.07 "HgN/A
1:30 pm70 °FPassing clouds.15 mph57%30.07 "HgN/A
1:00 pm68 °FScattered clouds.14 mph60%30.07 "HgN/A
12:30 pm68 °FScattered clouds.15 mph60%30.07 "HgN/A
12:00 pm68 °FPassing clouds.16 mph56%30.07 "HgN/A
11:30 am68 °FPassing clouds.16 mph60%30.07 "HgN/A
11:00 am68 °FPassing clouds.15 mph60%30.07 "HgN/A
10:30 am68 °FSunny.16 mph60%30.07 "Hg10 mi
10:00 am66 °FSunny.20 mph64%30.07 "Hg10 mi
9:30 am64 °FSunny.14 mph68%30.07 "Hg10 mi
9:00 am64 °FPassing clouds.18 mph64%30.04 "HgN/A
8:30 am64 °FPassing clouds.15 mph64%30.07 "HgN/A
8:00 am63 °FPassing clouds.14 mph68%30.07 "HgN/A
7:30 am63 °FPassing clouds.12 mph68%30.07 "HgN/A
7:00 am61 °FScattered clouds.7 mph72%30.07 "HgN/A
6:30 am61 °FScattered clouds.9 mph72%30.04 "HgN/A
6:00 am61 °FPartly sunny.14 mph72%30.04 "HgN/A
5:30 am61 °FPartly sunny.9 mph72%30.04 "HgN/A
5:00 am59 °FScattered clouds.8 mph77%30.04 "HgN/A
4:30 am61 °FPassing clouds.7 mph72%30.04 "HgN/A
4:00 am61 °FPassing clouds.12 mph72%30.04 "HgN/A
3:30 am61 °FPassing clouds.12 mph72%30.04 "HgN/A
3:00 am61 °FPassing clouds.15 mph72%30.04 "HgN/A
2:30 am63 °FPassing clouds.13 mph68%30.04 "HgN/A
2:00 am63 °FClear.14 mph64%30.04 "Hg10 mi
1:30 am63 °FPassing clouds.15 mph64%30.04 "HgN/A
1:00 am61 °FPassing clouds.14 mph68%30.04 "HgN/A
12:35 am63 °FClear.18 mph64%30.04 "Hg10 mi
12:00 am63 °FClear.17 mph64%30.04 "Hg10 mi
11:30 pm
Sun, May 21
63 °FClear.18 mph64%30.04 "Hg10 mi
11:00 pm64 °FClear.22 mph60%30.04 "Hg10 mi
Weather by CustomWeather, © 2017

See weather overviewHow to use our weather pages